TimeEDT,TemperatureF,Dew PointF,Humidity,Sea Level PressureIn,VisibilityMPH,Wind Direction,Wind SpeedMPH,Gust SpeedMPH,PrecipitationIn,Events,Conditions,WindDirDegrees,DateUTC
12:15 AM,67.1,56.3,68,30.12,10.0,SSW,8.1,-,N/A,,Clear,200,2013-04-10 04:15:00
12:35 AM,66.2,56.5,71,30.12,10.0,SSW,8.1,-,N/A,,Clear,200,2013-04-10 04:35:00
12:55 AM,65.8,56.8,73,30.12,10.0,SSW,8.1,-,N/A,,Clear,200,2013-04-10 04:55:00
1:15 AM,65.5,56.7,73,30.11,10.0,South,6.9,-,N/A,,Clear,190,2013-04-10 05:15:00
1:35 AM,64.9,57.2,76,30.11,10.0,South,6.9,-,N/A,,Clear,190,2013-04-10 05:35:00
1:55 AM,64.0,57.2,78,30.10,10.0,South,6.9,-,N/A,,Clear,190,2013-04-10 05:55:00
2:15 AM,63.9,57.6,80,30.09,10.0,SSW,6.9,-,N/A,,Clear,200,2013-04-10 06:15:00
2:35 AM,64.0,58.1,81,30.09,10.0,SSW,8.1,-,N/A,,Clear,200,2013-04-10 06:35:00
2:55 AM,63.9,58.3,82,30.09,10.0,SSW,8.1,-,N/A,,Clear,200,2013-04-10 06:55:00
3:15 AM,63.5,58.3,83,30.09,10.0,SSW,6.9,-,N/A,,Clear,200,2013-04-10 07:15:00
3:35 AM,63.0,58.3,85,30.09,10.0,SSW,6.9,-,N/A,,Clear,200,2013-04-10 07:35:00
3:55 AM,62.6,58.5,86,30.09,10.0,SSW,6.9,-,N/A,,Clear,210,2013-04-10 07:55:00
4:15 AM,61.9,58.5,89,30.10,10.0,SW,5.8,-,N/A,,Clear,220,2013-04-10 08:15:00
4:35 AM,62.1,58.6,89,30.10,10.0,SW,6.9,-,N/A,,Clear,220,2013-04-10 08:35:00
4:55 AM,61.7,59.0,91,30.10,10.0,SSW,6.9,-,N/A,,Clear,210,2013-04-10 08:55:00
5:15 AM,61.5,59.0,91,30.11,10.0,SSW,5.8,-,N/A,,Clear,210,2013-04-10 09:15:00
5:35 AM,61.2,59.0,93,30.11,10.0,SW,5.8,-,N/A,,Clear,220,2013-04-10 09:35:00
5:55 AM,61.2,59.0,93,30.11,10.0,SW,5.8,-,N/A,,Clear,220,2013-04-10 09:55:00
6:15 AM,60.8,59.0,94,30.11,10.0,SSW,5.8,-,N/A,,Clear,210,2013-04-10 10:15:00
6:35 AM,60.6,59.0,94,30.12,10.0,SW,5.8,-,N/A,,Clear,220,2013-04-10 10:35:00
6:55 AM,60.8,59.2,94,30.12,10.0,SW,5.8,-,N/A,,Clear,220,2013-04-10 10:55:00
6:56 AM,60.8,59.0,94,30.12,10.0,SW,6.9,-,N/A,,Clear,220,2013-04-10 10:56:00
7:56 AM,64.4,60.8,88,30.13,10.0,SW,8.1,-,N/A,,Clear,230,2013-04-10 11:56:00
8:56 AM,69.8,60.8,73,30.14,10.0,WSW,10.4,18.4,N/A,,Clear,240,2013-04-10 12:56:00
9:56 AM,73.4,60.8,65,30.14,10.0,WSW,11.5,-,N/A,,Clear,240,2013-04-10 13:56:00
10:56 AM,78.8,59.0,51,30.13,10.0,SW,12.7,-,N/A,,Clear,220,2013-04-10 14:56:00
11:56 AM,80.6,59.0,48,30.12,10.0,SSW,13.8,17.3,N/A,,Clear,210,2013-04-10 15:56:00
12:56 PM,84.2,59.0,42,30.09,10.0,WSW,11.5,18.4,N/A,,Clear,240,2013-04-10 16:56:00
1:56 PM,86.0,57.2,37,30.07,10.0,SW,10.4,18.4,N/A,,Clear,220,2013-04-10 17:56:00
2:56 PM,86.0,55.4,35,30.05,10.0,SW,10.4,25.3,N/A,,Clear,220,2013-04-10 18:56:00
3:56 PM,86.0,55.4,35,30.02,10.0,SW,11.5,16.1,N/A,,Clear,220,2013-04-10 19:56:00
4:56 PM,87.8,55.4,33,30.00,10.0,SW,12.7,18.4,N/A,,Clear,230,2013-04-10 20:56:00
5:56 PM,86.0,55.4,35,29.99,10.0,SSW,13.8,18.4,N/A,,Clear,200,2013-04-10 21:56:00
6:56 PM,82.4,57.2,42,29.98,10.0,SSW,12.7,16.1,N/A,,Clear,200,2013-04-10 22:56:00
7:56 PM,78.8,59.0,51,29.98,10.0,South,10.4,-,N/A,,Clear,190,2013-04-10 23:56:00
8:56 PM,75.2,59.0,57,30.00,10.0,South,11.5,19.6,N/A,,Clear,190,2013-04-11 00:56:00
9:15 PM,73.4,59.0,61,30.00,10.0,SSW,11.5,-,N/A,,Clear,200,2013-04-11 01:15:00
9:35 PM,72.9,57.6,59,30.01,10.0,SSW,18.4,21.9,N/A,,Clear,210,2013-04-11 01:35:00
9:55 PM,71.8,56.3,58,30.02,10.0,SSW,12.7,23.0,N/A,,Clear,200,2013-04-11 01:55:00
9:56 PM,71.6,55.4,57,30.02,10.0,SSW,13.8,23.0,N/A,,Clear,200,2013-04-11 01:56:00
10:15 PM,70.5,55.6,59,30.02,10.0,SSW,13.8,17.3,N/A,,Clear,200,2013-04-11 02:15:00
10:35 PM,69.8,55.4,60,30.02,10.0,SSW,10.4,16.1,N/A,,Clear,200,2013-04-11 02:35:00
10:55 PM,68.9,55.6,62,30.01,10.0,SSW,11.5,-,N/A,,Clear,200,2013-04-11 02:55:00
11:15 PM,68.2,55.6,64,30.02,10.0,SSW,11.5,-,N/A,,Clear,200,2013-04-11 03:15:00
11:35 PM,68.0,56.3,66,30.02,10.0,SSW,10.4,-,N/A,,Clear,200,2013-04-11 03:35:00
11:55 PM,66.7,57.2,71,30.01,10.0,SSW,9.2,-,N/A,,Clear,200,2013-04-11 03:55:00